{"data":{"norad_id":62842,"epoch":"2026-09-21T17:26:30.272928Z","epoch_age_seconds":62209,"freshness":"FRESH","line1":"1 62842U 25019P   26264.72673927  .00017770  00000+0  65341-3 0  9995","line2":"2 62842  43.0068  54.8261 0002082 297.2445  62.8194 15.27595731 92316","mean_motion":15.27595731,"eccentricity":0.0002082,"inclination_deg":43.0068,"raan_deg":54.8261,"arg_perigee_deg":297.2445,"mean_anomaly_deg":62.8194,"bstar":0.00065341,"rev_number":9231,"period_min":94.265777965833,"perigee_km":481.57350303251,"apogee_km":484.43048130885,"semimajor_km":6861.1389921707,"source":"CELESTRAK","updated_at":"2026-09-22T09:00:49.673672Z"}}